New Roads False River Regiona, LA

2:00 AM CST on December 16, 2019 (GMT -0600)
False River

Weather History for KHZR - August, 2019

Change the Weather History Date:

Saturday, August 17, 2019

  Actual Average (WUND) Record (WUND)
Temperature  
Mean Temperature 81 °F -  
Max Temperature 91 °F - - (-1)
Min Temperature 71 °F - - (-1)
Cooling Degree Days 16    
Growing Degree Days 31 (Base 50)    
Moisture  
Dew Point 75 °F    
Average Humidity 81    
Maximum Humidity 100    
Minimum Humidity 59    
Precipitation  
Precipitation 0.00 in - - ()
Sea Level Pressure  
Sea Level Pressure 29.94 in    
Wind  
Wind Speed 2 mph (South)    
Max Wind Speed 10 mph    
Max Gust Speed 18 mph    
Visibility 10 miles    
Events      
Averages and records for this station are not official NWS values.
T = Trace of Precipitation, MM = Missing Value Source: NWS Daily Summary

Daily Weather History Graph

Daily Weather History Graph

Search for Another Location

Airport or City:

Astronomy

Aug. 17, 2019 Rise Set
Actual Time 6:33 AM CDT 7:46 PM CDT
Civil Twilight 6:08 AM CDT 8:11 PM CDT
Nautical Twilight 5:38 AM CDT 8:41 PM CDT
Astronomical Twilight 5:06 AM CDT 9:12 PM CDT
Moon 9:20 PM CDT (8/17) 8:17 AM CDT (8/17)
Length of Visible Light 14h 03m
Length of Day
13h 12m
Waning Gibbous, 96% of the Moon is Illuminated
Aug 17
Waning Gibbous
Aug 23
Last Quarter
Aug 30
New
Sep 5
First Quarter
Sep 13
Full

Hourly Weather History & Observations

Time (CDT) Temp. Heat Index Dew Point Humidity Pressure Visibility Wind Dir Wind Speed Gust Speed Precip Events Conditions
12:16 AM 78.8 °F - 75.2 °F 89% 29.96 in 10.0 mi Calm Calm - N/A   Clear
12:36 AM 77.0 °F - 75.2 °F 94% 29.96 in 10.0 mi Calm Calm - N/A   Clear
12:58 AM 77.0 °F - 75.2 °F 94% 29.96 in 10.0 mi Calm Calm - N/A   Clear
1:17 AM 77.0 °F - 75.2 °F 94% 29.95 in 10.0 mi South 4.6 mph - N/A   Clear
1:56 AM 77.0 °F - 75.2 °F 94% 29.94 in 10.0 mi SSW 4.6 mph - N/A   Clear
2:36 AM 75.2 °F - 73.4 °F 94% 29.95 in 10.0 mi North 3.5 mph - N/A   Clear
2:56 AM 73.4 °F - 73.4 °F 100% 29.95 in 10.0 mi Calm Calm - N/A   Clear
3:16 AM 73.4 °F - 73.4 °F 100% 29.95 in 10.0 mi Calm Calm - N/A   Clear
4:16 AM 73.4 °F - 73.4 °F 100% 29.93 in 10.0 mi Calm Calm - N/A   Clear
4:36 AM 73.4 °F - 71.6 °F 94% 29.92 in 10.0 mi Calm Calm - N/A   Clear
4:56 AM 73.4 °F - 73.4 °F 100% 29.92 in 10.0 mi Calm Calm - N/A   Clear
5:16 AM 73.4 °F - 71.6 °F 94% 29.92 in 10.0 mi Calm Calm - N/A   Clear
5:36 AM 73.4 °F - 71.6 °F 94% 29.91 in 10.0 mi Calm Calm - N/A   Clear
5:57 AM 73.4 °F - 71.6 °F 94% 29.92 in 10.0 mi Calm Calm - N/A   Clear
6:37 AM 73.4 °F - 71.6 °F 94% 29.94 in 10.0 mi Calm Calm - N/A   Clear
6:57 AM 71.6 °F - 71.6 °F 100% 29.94 in 7.0 mi Calm Calm - N/A   Clear
7:18 AM 73.4 °F - 73.4 °F 100% 29.95 in 7.0 mi Calm Calm - N/A   Clear
7:36 AM 75.2 °F - 73.4 °F 94% 29.95 in 10.0 mi Calm Calm - N/A   Clear
7:58 AM 78.8 °F - 75.2 °F 89% 29.97 in 10.0 mi Calm Calm - N/A   Clear
8:16 AM 78.8 °F - 75.2 °F 89% 29.97 in 10.0 mi Calm Calm - N/A   Clear
8:36 AM 80.6 °F 86.2 °F 75.2 °F 84% 29.98 in 10.0 mi Calm Calm - N/A   Clear
8:58 AM 82.4 °F 89.5 °F 75.2 °F 79% 29.98 in 10.0 mi Calm Calm - N/A   Clear
9:18 AM 82.4 °F 89.5 °F 75.2 °F 79% 29.99 in 10.0 mi Calm Calm - N/A   Clear
9:36 AM 84.2 °F 94.1 °F 77.0 °F 79% 29.98 in 10.0 mi Calm Calm - N/A   Clear
10:16 AM 84.2 °F 94.1 °F 77.0 °F 79% 29.98 in 10.0 mi NW 3.5 mph - N/A   Clear
10:36 AM 87.8 °F 97.6 °F 75.2 °F 66% 29.98 in 10.0 mi Calm Calm - N/A   Scattered Clouds
10:58 AM 86.0 °F 95.1 °F 75.2 °F 70% 29.99 in 10.0 mi Calm Calm - N/A   Overcast
11:16 AM 87.8 °F 99.7 °F 77.0 °F 70% 29.98 in 10.0 mi WNW 4.6 mph - N/A   Overcast
11:36 AM 87.8 °F 97.6 °F 75.2 °F 66% 29.97 in 10.0 mi Calm Calm - N/A   Mostly Cloudy
11:56 AM 87.8 °F 97.6 °F 75.2 °F 66% 29.97 in 10.0 mi Calm Calm - N/A   Scattered Clouds
12:16 PM 89.6 °F 99.8 °F 75.2 °F 62% 29.97 in 10.0 mi NE 4.6 mph - N/A   Clear
12:36 PM 91.4 °F 102.5 °F 75.2 °F 59% 29.97 in 10.0 mi SSE 3.5 mph - N/A   Clear
12:56 PM 89.6 °F 98.2 °F 73.4 °F 59% 29.95 in 10.0 mi SSE 3.5 mph - N/A   Scattered Clouds
1:36 PM 87.8 °F 97.6 °F 75.2 °F 66% 29.95 in 10.0 mi SW 10.4 mph 18.4 mph N/A   Scattered Clouds
2:17 PM 82.4 °F 90.9 °F 77.0 °F 84% 29.95 in 10.0 mi SSW 4.6 mph - N/A   Overcast
3:16 PM 86.0 °F 95.1 °F 75.2 °F 70% 29.93 in 10.0 mi SSW 4.6 mph - N/A   Scattered Clouds
3:36 PM 89.6 °F 102.2 °F 77.0 °F 66% 29.92 in 10.0 mi South 6.9 mph - N/A   Clear
3:56 PM 89.6 °F 102.2 °F 77.0 °F 66% 29.92 in 10.0 mi South 5.8 mph - N/A   Scattered Clouds
4:16 PM 87.8 °F 99.7 °F 77.0 °F 70% 29.92 in 10.0 mi South 10.4 mph - N/A   Scattered Clouds
4:36 PM 89.6 °F 102.2 °F 77.0 °F 66% 29.92 in 10.0 mi South 8.1 mph - N/A   Scattered Clouds
4:56 PM 89.6 °F 102.2 °F 77.0 °F 66% 29.91 in 10.0 mi SSE 5.8 mph - N/A   Scattered Clouds
5:16 PM 89.6 °F 98.2 °F 73.4 °F 59% 29.91 in 10.0 mi SSE 8.1 mph - N/A   Scattered Clouds
5:36 PM 87.8 °F 97.6 °F 75.2 °F 66% 29.92 in 10.0 mi South 5.8 mph - N/A   Clear
5:56 PM 87.8 °F 97.6 °F 75.2 °F 66% 29.92 in 10.0 mi South 5.8 mph - N/A   Clear
6:16 PM 87.8 °F 97.6 °F 75.2 °F 66% 29.91 in 10.0 mi SSE 6.9 mph - N/A   Clear
6:35 PM 87.8 °F 97.6 °F 75.2 °F 66% 29.91 in 10.0 mi SSE 4.6 mph - N/A   Clear
7:16 PM 84.2 °F 92.3 °F 75.2 °F 74% 29.92 in 10.0 mi South 3.5 mph - N/A   Scattered Clouds
7:38 PM 84.2 °F 92.3 °F 75.2 °F 74% 29.92 in 10.0 mi South 4.6 mph - N/A   Scattered Clouds
7:56 PM 82.4 °F 88.2 °F 73.4 °F 74% 29.92 in 10.0 mi South 4.6 mph - N/A   Mostly Cloudy
8:18 PM 82.4 °F 88.2 °F 73.4 °F 74% 29.92 in 10.0 mi South 5.8 mph - N/A   Scattered Clouds
8:36 PM 82.4 °F 89.5 °F 75.2 °F 79% 29.92 in 10.0 mi South 3.5 mph - N/A   Clear
8:56 PM 80.6 °F 86.2 °F 75.2 °F 84% 29.92 in 10.0 mi South 3.5 mph - N/A   Clear
9:36 PM 80.6 °F 86.2 °F 75.2 °F 84% 29.94 in 10.0 mi Calm Calm - N/A   Clear
9:56 PM 80.6 °F 86.2 °F 75.2 °F 84% 29.94 in 10.0 mi South 4.6 mph - N/A   Clear
10:16 PM 80.6 °F 86.2 °F 75.2 °F 84% 29.94 in 10.0 mi SSE 4.6 mph - N/A   Clear
10:36 PM 80.6 °F 86.2 °F 75.2 °F 84% 29.94 in 10.0 mi SSE 5.8 mph - N/A   Clear
10:56 PM 80.6 °F 86.2 °F 75.2 °F 84% 29.94 in 10.0 mi SSE 4.6 mph - N/A   Clear
11:16 PM 78.8 °F - 75.2 °F 89% 29.94 in 10.0 mi South 4.6 mph - N/A   Clear
11:36 PM 78.8 °F - 75.2 °F 89% 29.94 in 10.0 mi South 5.8 mph - N/A   Clear
11:57 PM 78.8 °F - 75.2 °F 89% 29.94 in 10.0 mi South 5.8 mph - N/A   Clear